Weather History for KVTP - September, 2013

Change the Weather History Date:

Saturday, September 21, 2013

  Actual Average (KTAD) Record (KTAD)
Temperature  
Mean Temperature 53 °F 62 °F  
Max Temperature 64 °F 78 °F 93 °F (2005)
Min Temperature 42 °F 47 °F 28 °F (1965)
Degree Days  
Heating Degree Days 12 4  
Month to date heating degree days 47  
Since 1 July heating degree days 57  
Cooling Degree Days 0 1  
Month to date cooling degree days 67  
Year to date cooling degree days 709  
Growing Degree Days 3 (Base 50)    
Moisture  
Dew Point 39 °F    
Average Humidity 67    
Maximum Humidity 93    
Minimum Humidity 34    
Precipitation  
Precipitation 0.00 in 0.03 in 0.45 in (1970)
Month to date precipitation 0.95  
Year to date precipitation 11.41  
Sea Level Pressure  
Sea Level Pressure 30.34 in    
Wind  
Wind Speed 9 mph (SW)    
Max Wind Speed 14 mph    
Max Gust Speed 25 mph    
Visibility 8 miles    
Events Fog , Thunderstorm    
T = Trace of Precipitation, MM = Missing Value Source: NWS Daily Summary

Daily Weather History Graph

Daily Weather History Graph

Search for Another Location

Airport or City:

Trip Planner

Search our weather history database for the weather conditions in past years. The results will help you decide how hot, cold, wet, or windy it might be!

Date:

Astronomy

Sep. 21, 2013 Rise Set
Actual Time 6:47 AM MDT 6:58 PM MDT
Civil Twilight 6:21 AM MDT 7:24 PM MDT
Nautical Twilight 5:51 AM MDT 7:55 PM MDT
Astronomical Twilight 5:20 AM MDT 8:26 PM MDT
Moon 8:15 PM MDT (9/21) 9:05 AM MDT (9/21)
Length of Visible Light 13h 02m
Length of Day
12h 10m
Waning Gibbous, 94% of the Moon is Illuminated
Sep 21
Waning Gibbous
Sep 26
Last Quarter
Oct 4
New
Oct 11
First Quarter
Oct 18
Full

Hourly Weather History & Observations

Time (MDT) Temp. Windchill Dew Point Humidity Pressure Visibility Wind Dir Wind Speed Gust Speed Precip Events Conditions
12:15 AM 44.6 °F 38.1 °F 35.6 °F 71% 30.39 in 10.0 mi SW 13.8 mph 20.7 mph N/A   Clear
12:34 AM 44.6 °F 40.2 °F 35.6 °F 71% 30.39 in 10.0 mi SW 8.1 mph - N/A   Clear
12:54 AM 44.6 °F 39.7 °F 39.2 °F 81% 30.39 in 10.0 mi SW 9.2 mph 18.4 mph N/A   Clear
1:14 AM 44.6 °F 39.7 °F 41.0 °F 87% 30.39 in 10.0 mi SW 9.2 mph - N/A   Clear
1:35 AM 44.6 °F 40.7 °F 41.0 °F 87% 30.39 in 10.0 mi SW 6.9 mph - N/A   Clear
1:55 AM 42.8 °F 38.6 °F 41.0 °F 93% 30.39 in 10.0 mi SW 6.9 mph - N/A   Clear
2:15 AM 42.8 °F 37.5 °F 41.0 °F 93% 30.38 in 5.0 mi SW 9.2 mph 18.4 mph N/A   Scattered Clouds
2:35 AM 42.8 °F 37.0 °F 41.0 °F 93% 30.38 in 0.8 mi WSW 10.4 mph 17.3 mph N/A   Overcast
2:54 AM 44.6 °F 38.8 °F 42.8 °F 93% 30.37 in 0.5 mi WSW 11.5 mph 19.6 mph N/A Fog Fog
3:15 AM 42.8 °F 36.6 °F 41.0 °F 93% 30.37 in 0.5 mi SW 11.5 mph 19.6 mph N/A Fog Fog
3:34 AM 42.8 °F 37.0 °F 41.0 °F 93% 30.37 in 2.0 mi SW 10.4 mph 20.7 mph N/A   Mostly Cloudy
3:53 AM 42.8 °F 38.0 °F 41.0 °F 93% 30.38 in 1.8 mi SW 8.1 mph 18.4 mph N/A   Mostly Cloudy
4:14 AM 42.8 °F 38.0 °F 41.0 °F 93% 30.38 in 0.5 mi WSW 8.1 mph - N/A Fog Fog
4:33 AM 42.8 °F 35.8 °F 41.0 °F 93% 30.38 in 4.0 mi SW 13.8 mph 18.4 mph N/A   Mostly Cloudy
4:55 AM 42.8 °F 37.0 °F 41.0 °F 93% 30.38 in 10.0 mi SW 10.4 mph 23.0 mph N/A   Clear
5:15 AM 42.8 °F 38.0 °F 41.0 °F 93% 30.37 in 4.0 mi SW 8.1 mph 20.7 mph N/A   Scattered Clouds
5:35 AM 42.8 °F 37.5 °F 41.0 °F 93% 30.37 in 5.0 mi SW 9.2 mph - N/A   Scattered Clouds
5:55 AM 42.8 °F 36.6 °F 41.0 °F 93% 30.38 in 7.0 mi SW 11.5 mph 20.7 mph N/A   Scattered Clouds
6:14 AM 42.8 °F 36.6 °F 41.0 °F 93% 30.38 in 7.0 mi SW 11.5 mph 19.6 mph N/A   Clear
6:33 AM 42.8 °F 36.6 °F 41.0 °F 93% 30.38 in 7.0 mi SW 11.5 mph 17.3 mph N/A   Clear
6:55 AM 42.8 °F 37.5 °F 41.0 °F 93% 30.37 in 4.0 mi SW 9.2 mph 17.3 mph N/A   Clear
7:14 AM 42.8 °F 40.1 °F 41.0 °F 93% 30.38 in 0.5 mi WSW 4.6 mph - N/A Fog Fog
7:34 AM 42.8 °F 39.3 °F 41.0 °F 93% 30.38 in 0.2 mi WSW 5.8 mph - N/A Fog Fog
7:54 AM 44.6 °F 41.4 °F 42.8 °F 93% 30.39 in 0.8 mi WSW 5.8 mph - N/A   Overcast
8:15 AM 44.6 °F 41.4 °F 42.8 °F 93% 30.39 in 7.0 mi SW 5.8 mph - N/A   Scattered Clouds
8:35 AM 44.6 °F 43.1 °F 42.8 °F 93% 30.39 in 10.0 mi SW 3.5 mph - N/A   Clear
8:55 AM 46.4 °F 44.3 °F 42.8 °F 87% 30.39 in 2.0 mi WSW 4.6 mph - N/A   Mostly Cloudy
9:14 AM 48.2 °F - 42.8 °F 82% 30.39 in 10.0 mi WSW 5.8 mph - N/A   Scattered Clouds
9:34 AM 50.0 °F - 42.8 °F 76% 30.39 in 10.0 mi WSW 5.8 mph - N/A   Clear
9:55 AM 53.6 °F - 42.8 °F 67% 30.40 in 10.0 mi SW 6.9 mph - N/A   Clear
10:14 AM 53.6 °F - 42.8 °F 67% 30.40 in 10.0 mi West 5.8 mph - N/A   Clear
10:35 AM 55.4 °F - 41.0 °F 58% 30.40 in 10.0 mi SW 8.1 mph - N/A   Clear
10:53 AM 55.4 °F - 41.0 °F 58% 30.40 in 10.0 mi SW 6.9 mph - N/A   Clear
11:14 AM 59.0 °F - 42.8 °F 55% 30.40 in 10.0 mi SW 9.2 mph - N/A   Clear
11:35 AM 59.0 °F - 44.6 °F 59% 30.39 in 10.0 mi SW 10.4 mph 18.4 mph N/A   Clear
11:54 AM 59.0 °F - 44.6 °F 59% 30.39 in 10.0 mi SW 8.1 mph 20.7 mph N/A   Clear
12:14 PM 59.0 °F - 42.8 °F 55% 30.38 in 10.0 mi SW 12.7 mph 18.4 mph N/A   Clear
12:34 PM 60.8 °F - 42.8 °F 52% 30.38 in 10.0 mi SW 10.4 mph 18.4 mph N/A   Clear
12:55 PM 62.6 °F - 39.2 °F 42% 30.37 in 10.0 mi SW 10.4 mph 21.9 mph N/A   Clear
1:14 PM 62.6 °F - 37.4 °F 39% 30.37 in 10.0 mi SW 12.7 mph 21.9 mph N/A   Clear
1:34 PM 62.6 °F - 35.6 °F 37% 30.36 in 10.0 mi SW 10.4 mph 16.1 mph N/A   Clear
1:53 PM 62.6 °F - 35.6 °F 37% 30.35 in 10.0 mi West 3.5 mph 19.6 mph N/A   Clear
2:15 PM 62.6 °F - 33.8 °F 34% 30.35 in 10.0 mi West 4.6 mph - N/A   Clear
2:33 PM 62.6 °F - 35.6 °F 37% 30.34 in 10.0 mi WSW 4.6 mph - N/A   Scattered Clouds
2:54 PM 64.4 °F - 37.4 °F 37% 30.34 in 10.0 mi SW 8.1 mph 18.4 mph N/A   Scattered Clouds
3:15 PM 60.8 °F - 35.6 °F 39% 30.33 in 10.0 mi SSW 6.9 mph 17.3 mph N/A   Scattered Clouds
3:34 PM 62.6 °F - 33.8 °F 34% 30.32 in 10.0 mi SW 10.4 mph 18.4 mph N/A   Scattered Clouds
3:54 PM 64.4 °F - 35.6 °F 34% 30.31 in 10.0 mi SSW 4.6 mph - N/A   Scattered Clouds
4:13 PM 62.6 °F - 33.8 °F 34% 30.31 in 10.0 mi WSW 3.5 mph - N/A   Scattered Clouds
4:34 PM 60.8 °F - 35.6 °F 39% 30.30 in 10.0 mi SW 9.2 mph 17.3 mph N/A   Scattered Clouds
4:55 PM 60.8 °F - 37.4 °F 42% 30.30 in 10.0 mi SW 8.1 mph - N/A   Scattered Clouds
5:13 PM 59.0 °F - 37.4 °F 45% 30.29 in 10.0 mi WSW 5.8 mph - N/A   Clear
5:34 PM 59.0 °F - 35.6 °F 42% 30.29 in 10.0 mi SW 8.1 mph 18.4 mph N/A   Clear
5:55 PM 59.0 °F - 33.8 °F 39% 30.28 in 10.0 mi SW 10.4 mph 20.7 mph N/A   Clear
6:14 PM 57.2 °F - 35.6 °F 44% 30.28 in 10.0 mi SW 8.1 mph 19.6 mph N/A   Clear
6:34 PM 55.4 °F - 35.6 °F 47% 30.27 in 10.0 mi SW 9.2 mph 17.3 mph N/A   Clear
6:54 PM 53.6 °F - 35.6 °F 51% 30.27 in 10.0 mi SW 8.1 mph - N/A   Clear
7:13 PM 53.6 °F - 33.8 °F 47% 30.27 in 10.0 mi SW 5.8 mph - N/A   Clear
7:34 PM 53.6 °F - 35.6 °F 51% 30.27 in 10.0 mi SW 6.9 mph - N/A   Clear
7:54 PM 53.6 °F - 35.6 °F 51% 30.27 in 10.0 mi SW 10.4 mph 17.3 mph N/A Thunderstorm Clear
8:14 PM 53.6 °F - 35.6 °F 51% 30.27 in 10.0 mi SW 6.9 mph 17.3 mph N/A   Clear
8:35 PM 51.8 °F - 35.6 °F 54% 30.26 in 10.0 mi SW 9.2 mph - N/A   Clear
8:54 PM 51.8 °F - 35.6 °F 54% 30.25 in 10.0 mi SW 13.8 mph 21.9 mph N/A   Clear
9:15 PM 50.0 °F - 35.6 °F 58% 30.27 in 10.0 mi SW 8.1 mph 20.7 mph N/A   Clear
9:35 PM 48.2 °F - 35.6 °F 62% 30.27 in 10.0 mi SW 6.9 mph 16.1 mph N/A   Clear
9:54 PM 48.2 °F - 35.6 °F 62% 30.27 in 10.0 mi SW 5.8 mph - N/A   Clear
10:14 PM 48.2 °F - 37.4 °F 66% 30.26 in 10.0 mi SW 8.1 mph - N/A   Clear
10:35 PM 48.2 °F - 37.4 °F 66% 30.25 in 10.0 mi SW 10.4 mph 18.4 mph N/A   Clear
10:55 PM 46.4 °F 41.9 °F 37.4 °F 71% 30.25 in 10.0 mi SW 9.2 mph 17.3 mph N/A   Clear
11:14 PM 44.6 °F 38.8 °F 37.4 °F 76% 30.25 in 10.0 mi SW 11.5 mph 18.4 mph N/A   Clear
11:33 PM 44.6 °F 38.8 °F 37.4 °F 76% 30.25 in 10.0 mi SW 11.5 mph 25.3 mph N/A   Clear
11:54 PM 44.6 °F 39.2 °F 37.4 °F 76% 30.25 in 10.0 mi SW 10.4 mph 20.7 mph N/A   Clear